AirNav   Everest Fuels
 
 375 users online  

4C4 Gifford Field Airport
Colebrook, New Hampshire, USA

GOING TO COLEBROOK?


FAA INFORMATION EFFECTIVE 31 DECEMBER 2020

Location

FAA Identifier: 4C4
Lat/Long: 44-53-15.0850N 071-30-27.8082W
44-53.251417N 071-30.463470W
44.8875236,-71.5077245
(estimated)
Elevation: 1017.3 ft. / 310 m (estimated)
Variation: 17W (1985)
From city: 1 mile SW of COLEBROOK, NH
Time zone: UTC -5 (UTC -4 during Daylight Saving Time)
Zip code: 03576

Airport Operations

Airport use: Open to the public
Activation date: 10/1904
Control tower: no
ARTCC: BOSTON CENTER
FSS: BANGOR FLIGHT SERVICE STATION
NOTAMs facility: BGR (NOTAM-D service available)
Attendance: UNATNDD
Wind indicator: yes
Segmented circle: no

Airport Communications

CTAF/UNICOM: 122.8

Nearby radio navigation aids

VOR radial/distance  VOR name  Freq  Var
YSCr172/28.3SHERBROOKE VOR/DME113.2017W

 
NDB name  Hdg/Dist  Freq  Var  ID
RANGELEY283/32.322118WRQM .-. --.- --
MAHN031/32.438617WGMA --. -- .-

Airport Services

Parking: tiedowns
Airframe service: NONE
Powerplant service: NONE
Bottled oxygen: NONE
Bulk oxygen: NONE

Runway Information

Runway 4/22

Dimensions: 2423 x 60 ft. / 739 x 18 m
ROAD TRAVERSES RWY 425 FT FM RWY 04 THR.
Surface: turf, in good condition
Runway edge markings: RWY 22 EDGES & ENDS MKD WITH YELLOW CONES.
RUNWAY 4  RUNWAY 22
Latitude: 44-53.068802N44-53.436138N
Longitude: 071-30.571972W071-30.353828W
Elevation: 1005.0 ft.1016.0 ft.
Traffic pattern: leftleft
Displaced threshold: 433 ft.no
Markings: NSTDNSTD
Touchdown point: yes, no lightsyes, no lights
Obstructions: 49 ft. trees, 24 ft. from runway, 103 ft. right of centerline
APCH SLOPE 3:1 TO DSPLCD THR.
15 ft. road, 30 ft. from runway

Airport Ownership and Management from official FAA records

Ownership: Privately-owned
Owner: IAN & CHRISTINA STEVENSON
888 AVE ASHFORD #7
SAN JUAN, PR 00907
Phone 787 565-4760
Manager: DOUGLAS BROOKS
14 DEPOT STREET
COLEBROOK, NH 03576
Phone 603 237-4914
AFTER HOURS CALL (603) 246-8222

Airport Operational Statistics

Aircraft based on the field: 7
Single engine airplanes: 7
    
Aircraft operations: avg 34/week *
57% local general aviation
43% transient general aviation
* for 12-month period ending 01 August 2018

Additional Remarks

RWY 04-22 STRIP SOFT IN SPRING. DT WET AREAS ALL YEAR.
RY 22 +80 FT TREES 900 FT FROM THR.
RY 04/22 CLSD NOV TO MAY EXCEPT SKI ACFT. CALL (603) 237-4914 FOR AIRFIELD CONDITIONS.
ROAD TRAVERSES RY 450 FT FM RY 04 THLD.
FOR CD CTC BOSTON ARTCC AT 603-879-6859.
7 FT CROPS IMT WEST OF RWY DURG SUMMER.

Instrument Procedures

There are no published instrument procedures at 4C4.

Some nearby airports with instrument procedures:

KBML - Berlin Regional Airport (23 nm SE)
KCDA - Caledonia County Airport (29 nm SW)
KEFK - Northeast Kingdom International Airport (31 nm W)
KHIE - Mount Washington Regional Airport (31 nm S)
M57 - Rangeley Lake Seaplane Base (36 nm E)
 
Loc | Ops | Rwys | IFR | FBO | Links
Com | Nav | Svcs | Stats | Notes
Area around 4C4 (Gifford Field Airport)
 
Road maps at: MapQuest Bing Google
 
Aerial photo
WARNING: Photo may not be current or correct
Aerial photo of 4C4 (Gifford Field Airport)
Do you have a better or more recent aerial photo of Gifford Field Airport that you would like to share? If so, please send us your photo.

 
Sectional chart

 
Airport distance calculator
Flying to Gifford Field Airport? Find the distance to fly.

From to 4C4

Sunrise and sunset
Times for 26-Jan-2021
 Local
(UTC-5)
 Zulu
(UTC)
Morning civil twilight06:4111:41
Sunrise07:1312:13
Sunset16:4421:44
Evening civil twilight17:1622:16

Current date and time
Zulu (UTC)  26-Jan-2021 10:19:11
Local (UTC-5)  26-Jan-2021 05:19:11
 
METAR
KBML 
23nm SE 
260952Z AUTO 00000KT 10SM CLR M21/M24 A3005 RMK AO2 SLP206 T12111244
CWQH 
29nm N 
260900Z AUTO 04003KT M13/M15 RMK AO1 SOG 20 8003 SLP200 T11291150
KCDA 
29nm SW 
260955Z AUTO 00000KT 7SM -SN OVC013 M12/M14 A3007 RMK AO2 T11251140
KEFK 
30nm W 
260955Z AUTO 00000KT 10SM OVC016 M11/M12 A3008 RMK AO2 T11101122
KHIE 
31nm S 
260952Z AUTO 00000KT 10SM OVC008 M20/M22 A3008 RMK AO2 SLP212 T12001222
CYSC 
34nm N 
260924Z AUTO 00000KT 9SM OVC009 M14/M16 A3006 RMK SLP200
K1V4 
36nm SW 
260954Z AUTO M12/M14 A3008 RMK AO1 SLP207 T11171144
CWTT 
36nm NW 
260900Z AUTO 12002KT M11/M13 RMK AO1 T11131129
KMWN 
38nm S 
260954Z 32019KT 120SM SCT/// SCT180 M15/M18 RMK TPS LWR SCT030
TAF
KHIE 
31nm S 
260533Z 2606/2706 00000KT P6SM SCT250 TEMPO 2608/2612 BKN025 FM262000 VRB03KT P6SM BKN050 OVC100 FM270100 VRB03KT 2SM -SN BKN015 OVC025
CYSC 
34nm N 
260024Z 2600/2603 VRB03KT P6SM FEW020 PROB30 2600/2603 2SM BR RMK FCST BASED ON AUTO OBS. NXT FCST WILL BE ISSUED AT 261045Z
NOTAMs
Click for the latest NOTAMs
NOTAMs are issued by the DoD/FAA and will open in a separate window not controlled by AirNav.

 

 
 

Would you like to see your business listed on this page?

 If your business provides an interesting product or service to pilots, flight crews, aircraft, or users of the Gifford Field Airport, you should consider listing it here.  To start the listing process, click on the button below
 
Add a business
 

Other Pages about Gifford Field Airport

Update a link
 
Copyright © AirNav, LLC. All rights reserved. Privacy Policy  Contact